Location: Allentsteig
(48.6833°N, 15.3167°E)
Time: 16:30:35
(UTC+00:00)

CENTAUR R/B - Pass Details

Date: 18 September 2020
Orbit: 753 x 1435 km, 63.5° (Epoch: 26 October)

Event Time Altitude Azimuth Distance (km) Brightness Sun altitude
Rises 21:15:20 0° 313° (NW) 4,226 6.7 -35.6°
Reaches altitude 10° 21:18:31 10° 302° (WNW) 3,343 5.9 -35.9°
Maximum altitude 21:25:06 27° 250° (WSW) 2,409 4.5 -36.4°
Enters shadow 21:25:43 27° 243° (WSW) 2,427 4.5 -36.5°
